SL-16 DEB, 22645

Orbit data source: Space-Track

SL-16 DEB, 22645 is space debris in LEO originally from a launch on Fri, 26 Mar 1993 UTC launched from the Tyuratam Missile And Space Complex (TTMTR). Debris objects in space refer to the collection of defunct objects orbiting the Earth. Examples of debris include non-operational satellites, rocket bodies, and fragments generated from explosions, collisions, or faulty payload assembly.

Loading next visibility...
Identifier
22645, 1993-016AF
Orbit
LEO
Last TLE update
21 hours ago
Origin
Manufacturer
Unknown
Mission
Spacecraft
Bus & Motor
Unknown
Mass
Unknown
Launch date (UTC)
1993-03-26 (32 years ago)
Launch vehicle
Unknown
Launch site
Tyuratam Missile And Space Complex (TTMTR)
Object type
Payload
Rocket body
Debris
Shape & HBR
Unknown
Radar Cross Section
Small (<0.1 m²)

Expand to show TLE details & history

TLE from 21 hours ago
0 SL-16 DEB
1 22645U 93016AF  25181.51182778  .00000584  00000-0  48635-3 0  9990
2 22645  70.9866 330.9307 0168878 129.5262 232.0913 13.86099146623599
Epoch: 2025-06-30T12:17Z
TLE epoch observation values (Epoch: 2025-06-30T12:17:01.92Z)
Latitude
0.00005°
Longitude
-132.14786°
Altitude
1,021.949 km
Speed
7.302 km/s
True Right ascension
22h 03m 43s
True Declination
0° 00' 00"
Sunlit
Object was in full shadow at epoch
Visualization orbit readout
Latitude
65.60877°
Longitude
-3.03045°
Altitude
838.59 km
Speed
7.498 km/s
Apparent Right ascension
08h 15m 32s
Apparent Declination
18° 20' 07"
Sunlit
Object is in daylight
Visualization observer readout
Local Sidereal Time
21:12:37
Azimuth
15.715° NNE
Elevation
-30.247°
Doppler factor
1
Orbital elements
Apogee altitude
1,063.879 km
Perigee altitude
816.695 km
Semi-major axis
7,318.424 km
Eccentricity
0.01689
Inclination
70.9866°
RAAN
330.9307°
Arg. of periapsis
129.5262°
True anomaly
Unknown
Mean anomaly
232.0913°
Eccentric anomaly
Unknown
Mean motion
3.4667 °/min
Orbital period
103.85 mins
BSTAR
0.00048635
Loading maneuver chart data...
Loading SW <> Apogee altitude chart data...
Loading historical data...
Loading historical data...
Loading historical data...
Loading historical data...
Loading historical data...
Loading historical data...
Loading historical data...

SL-16 DEB Visibility forecast

Observer location: undefined°, undefined°

Span
Click to sort rows by Start time (UTC) header in descending order
Start Az.
Max El. time (UTC)
Max El. Az.
Max El.
End time (UTC)
End Az.
11 mins2025-07-01 10:54:19.447Z185.06° SSW2025-07-01 11:00:19.447Z91.132° ESE40.164°2025-07-01 11:05:19.447Z31.919° NE
7 mins2025-07-01 12:43:19.447Z266.498° W2025-07-01 12:46:19.447Z302.98° NW21.163°2025-07-01 12:50:19.447Z351.522° N
7 mins2025-07-01 20:02:19.447Z12.49° NNE2025-07-01 20:05:19.447Z61.372° ENE25.956°2025-07-01 20:09:19.447Z113.923° SE
8 mins2025-07-01 21:48:19.447Z307.292° NW2025-07-01 21:51:19.447Z255.387° W30.457°2025-07-01 21:56:19.447Z190.054° SSW
|